Regional Weather Roundup
Issued by NWS

Home | Current Version | Previous Version | Text Only | Print | Product List | Glossary On
Versions: 1 2 3 4 5 6 7 8 9 10 11 12 13 14 15 16 17 18 19 20 21 22 23 24 25 26 27 28 29 30 31 32 33 34 35 36 37 38 39 40 41 42 43 44 45 46 47 48 49 50
594
ASUS44 KLIX 182105
RWRLA
LOUISIANA WEATHER ROUNDUP
NATIONAL WEATHER SERVICE NEW ORLEANS LA
400 PM CDT FRI APR 18 2014

NOTE: "FAIR" INDICATES FEW OR NO CLOUDS BELOW 12,000 FEET WITH NO
      SIGNIFICANT WEATHER AND/OR OBSTRUCTIONS TO VISIBILITY.
      SKY/WX - SKY CONDITION AND SIGNIFICANT WEATHER.
      TMP - AIR TEMPERATURE.    DP   - DEWPOINT TEMPERATURE.
      RH  - RELATIVE HUMIDITY.  PRES - PRESSURE.
      HX  - HEAT INDEX.         WCI  - WIND CHILL INDEX.

*  THESE STATIONS ARE NOT NWS OR FAA STATIONS AND ARE NOT UNDER
   NWS QUALITY CONTROL.

LAZ040-048-061>063-065-066-069-182200-
SOUTHEAST LOUISIANA

CITY           SKY/WX    TMP DP  RH WIND       PRES   REMARKS
N.O. AUDUBON   NOT AVBL
N.O. INTL ARPT MOSUNNY   73  59  61 NE16      30.06S
N.O. LAKEFRONT MOSUNNY   70  60  70 NE12      30.06S
N.O. DOWNTOWN* MOCLDY    72  54  53 N10G24    30.06S
SLIDELL        CLOUDY    71  57  61 N14       30.05S
BATON ROUGE    RAIN      75  56  51 N8G17     30.05F
BOOTHVILLE     CLOUDY    66  59  78 N10G20    30.04S
BELLE CHASSE   PTSUNNY   73  57  57 NE10G17   30.04F
BOGALUSA*        N/A     73  56  55 NE15G24   30.09R
GALLIANO*      PTCLDY    75  60  59 N15G21    30.04S
NEW ROADS*     FAIR      73  60  63 NW15      30.07F
GONZALES*      MOCLDY    75  57  52 N6        30.04S
HAMMOND*       MOSUNNY   75  54  46 N13G18    30.07S
HOUMA*         MOSUNNY   77  55  47 N16       30.04F
PORT FOURCHON*   N/A     73  59  60 NE16G23   30.06S

$$

LAZ041-044-053-054-182200-
SOUTHWEST LOUISIANA

CITY           SKY/WX    TMP DP  RH WIND       PRES   REMARKS
LAKE CHARLES   CLOUDY    75  55  49 NE9       30.08F
LAFAYETTE      CLOUDY    71  60  68 N17       30.08S
PATTERSON      SUNNY     79  57  47 NE8       30.07F
SALT POINT       N/A     82  58  43 VRB5      30.03F
NEW IBERIA     PTSUNNY   76  59  55 N14       30.06F
CHENAULT AIRPK MOSUNNY   75  55  50 N8        30.10

$$

LAZ027-028-182200-
CENTRAL LOUISIANA

CITY           SKY/WX    TMP DP  RH WIND       PRES   REMARKS
FORT POLK      CLOUDY    73  55  53 NE13      30.10F
ALEXANDRIA INT PTSUNNY   75  58  55 N9        30.09F
ALEXANDRIA     MOSUNNY   77  56  48 N8        30.11F

$$

LAZ001-002-182200-
NORTHWEST LOUISIANA

CITY           SKY/WX    TMP DP  RH WIND       PRES   REMARKS
SHREVEPORT     PTSUNNY   75  53  46 N12G18    30.13F
BARKSDALE AFB  CLOUDY    73  53  49 NE3       30.14F
DTN SHREVEPORT CLOUDY    72  52  49 N5        30.14F

$$

LAZ014-016-182200-
NORTHEAST LOUISIANA

CITY           SKY/WX    TMP DP  RH WIND       PRES   REMARKS
MONROE         PTSUNNY   72  55  55 NE10      30.14F
TALLULAH       MOSUNNY   76  57  51 NE14      30.11

$$




USA.gov is the U.S. government's official web portal to all federal, state and local government web resources and services.